Time,TemperatureF,DewpointF,PressureIn,WindDirection,WindDirectionDegrees,WindSpeedMPH,WindSpeedGustMPH,Humidity,HourlyPrecipIn,Conditions,Clouds,dailyrainin,SoftwareType,DateUTC
2013-04-07 00:00:00,38.0,34.5,29.78,West,270,1.0,3.0,87,0.00,,,0.00,VWS V14.01,2013-04-07 05:00:00,
2013-04-07 00:03:00,38.0,34.5,29.78,West,273,0.0,3.0,87,0.00,,,0.00,VWS V14.01,2013-04-07 05:03:00,
2013-04-07 00:08:00,38.0,34.5,29.78,WNW,283,2.0,3.0,87,0.00,,,0.00,VWS V14.01,2013-04-07 05:08:00,
2013-04-07 00:13:00,38.1,34.6,29.78,WNW,283,1.0,3.0,87,0.00,,,0.00,VWS V14.01,2013-04-07 05:13:00,
2013-04-07 00:15:00,38.1,34.6,29.78,WNW,283,1.0,3.0,87,0.00,,,0.00,VWS V14.01,2013-04-07 05:15:00,
2013-04-07 00:18:00,38.1,34.6,29.78,WNW,284,2.0,4.0,87,0.00,,,0.00,VWS V14.01,2013-04-07 05:18:00,
2013-04-07 00:23:00,38.0,34.8,29.79,NW,318,5.0,5.0,88,0.00,,,0.00,VWS V14.01,2013-04-07 05:23:00,
2013-04-07 00:28:00,38.0,34.5,29.79,WNW,294,2.0,5.0,87,0.00,,,0.00,VWS V14.01,2013-04-07 05:28:00,
2013-04-07 00:30:00,38.0,34.5,29.79,West,264,2.0,5.0,87,0.00,,,0.00,VWS V14.01,2013-04-07 05:30:00,
2013-04-07 00:33:00,38.0,34.8,29.80,NW,319,3.0,5.0,88,0.00,,,0.00,VWS V14.01,2013-04-07 05:33:00,
2013-04-07 00:38:00,37.9,34.7,29.80,West,279,3.0,6.0,88,0.00,,,0.00,VWS V14.01,2013-04-07 05:38:00,
2013-04-07 00:45:00,37.8,34.9,29.79,WNW,300,1.0,3.0,89,0.00,,,0.00,VWS V14.01,2013-04-07 05:45:00,
2013-04-07 00:50:00,37.8,34.9,29.80,WNW,298,2.0,5.0,89,0.00,,,0.00,VWS V14.01,2013-04-07 05:50:00,
2013-04-07 00:55:00,37.7,34.8,29.80,NNW,335,1.0,5.0,89,0.00,,,0.00,VWS V14.01,2013-04-07 05:55:00,
2013-04-07 01:00:00,37.7,34.8,29.80,NNW,342,1.0,2.0,89,0.00,,,0.00,VWS V14.01,2013-04-07 06:00:00,
2013-04-07 01:05:00,37.6,34.7,29.80,West,275,2.0,3.0,89,0.00,,,0.00,VWS V14.01,2013-04-07 06:05:00,
2013-04-07 01:11:00,37.5,34.6,29.80,NNW,333,0.0,3.0,89,0.00,,,0.00,VWS V14.01,2013-04-07 06:11:00,
2013-04-07 01:15:00,37.5,34.6,29.80,NW,304,1.0,3.0,89,0.00,,,0.00,VWS V14.01,2013-04-07 06:15:00,
2013-04-07 01:16:00,37.5,34.6,29.80,NW,321,2.0,3.0,89,0.00,,,0.00,VWS V14.01,2013-04-07 06:16:00,
2013-04-07 01:22:00,37.4,34.7,29.80,NW,315,0.0,6.0,90,0.00,,,0.00,VWS V14.01,2013-04-07 06:22:00,
2013-04-07 01:27:00,37.4,34.7,29.80,NW,323,0.0,6.0,90,0.00,,,0.00,VWS V14.01,2013-04-07 06:27:00,
2013-04-07 01:30:00,37.3,34.6,29.80,NW,323,1.0,6.0,90,0.00,,,0.00,VWS V14.01,2013-04-07 06:30:00,
2013-04-07 01:33:00,37.3,34.6,29.80,NW,323,2.0,3.0,90,0.00,,,0.00,VWS V14.01,2013-04-07 06:33:00,
2013-04-07 01:38:00,37.3,34.6,29.81,NW,304,0.0,3.0,90,0.00,,,0.00,VWS V14.01,2013-04-07 06:38:00,
2013-04-07 01:44:00,37.2,34.5,29.81,NW,306,2.0,3.0,90,0.00,,,0.00,VWS V14.01,2013-04-07 06:44:00,
2013-04-07 01:45:00,37.2,34.5,29.81,NW,306,2.0,3.0,90,0.00,,,0.00,VWS V14.01,2013-04-07 06:45:00,
2013-04-07 01:49:00,37.2,34.5,29.81,WNW,300,1.0,3.0,90,0.00,,,0.00,VWS V14.01,2013-04-07 06:49:00,
2013-04-07 01:55:00,37.2,34.5,29.81,WNW,296,1.0,3.0,90,0.00,,,0.00,VWS V14.01,2013-04-07 06:55:00,
2013-04-07 02:00:00,37.1,34.4,29.81,WNW,294,2.0,2.0,90,0.00,,,0.00,VWS V14.01,2013-04-07 07:00:00,
2013-04-07 02:05:00,37.0,34.3,29.81,NW,308,1.0,2.0,90,0.00,,,0.00,VWS V14.01,2013-04-07 07:05:00,
2013-04-07 02:11:00,37.0,34.3,29.81,WNW,296,0.0,4.0,90,0.00,,,0.00,VWS V14.01,2013-04-07 07:11:00,
2013-04-07 02:15:00,37.0,34.3,29.82,WNW,302,1.0,4.0,90,0.00,,,0.00,VWS V14.01,2013-04-07 07:15:00,
2013-04-07 02:17:00,36.9,34.2,29.81,NW,307,0.0,5.0,90,0.00,,,0.00,VWS V14.01,2013-04-07 07:17:00,
2013-04-07 02:24:00,36.9,34.2,29.81,NW,318,2.0,5.0,90,0.00,,,0.00,VWS V14.01,2013-04-07 07:24:00,
2013-04-07 02:30:00,36.8,34.2,29.81,NW,309,0.0,0.0,90,0.00,,,0.00,VWS V14.01,2013-04-07 07:30:00,
2013-04-07 02:35:00,36.8,34.2,29.81,NNW,331,1.0,2.0,90,0.00,,,0.00,VWS V14.01,2013-04-07 07:35:00,
2013-04-07 02:40:00,36.7,34.0,29.81,NNW,341,2.0,2.0,90,0.00,,,0.00,VWS V14.01,2013-04-07 07:40:00,
2013-04-07 02:45:00,36.6,34.0,29.81,NNW,344,0.0,2.0,90,0.00,,,0.00,VWS V14.01,2013-04-07 07:45:00,
2013-04-07 02:46:00,36.6,34.0,29.81,WNW,295,1.0,1.0,90,0.00,,,0.00,VWS V14.01,2013-04-07 07:46:00,
2013-04-07 02:52:00,36.6,34.0,29.81,WNW,297,2.0,2.0,90,0.00,,,0.00,VWS V14.01,2013-04-07 07:52:00,
2013-04-07 02:57:00,36.6,34.0,29.81,WNW,301,1.0,3.0,90,0.00,,,0.00,VWS V14.01,2013-04-07 07:57:00,
2013-04-07 03:00:00,36.5,33.6,29.81,WNW,301,3.0,3.0,89,0.00,,,0.00,VWS V14.01,2013-04-07 08:00:00,
2013-04-07 03:03:00,36.5,33.6,29.81,NW,309,0.0,3.0,89,0.00,,,0.00,VWS V14.01,2013-04-07 08:03:00,
2013-04-07 03:08:00,36.5,33.6,29.82,NNW,341,1.0,3.0,89,0.00,,,0.00,VWS V14.01,2013-04-07 08:08:00,
2013-04-07 03:14:00,36.5,33.6,29.82,NW,310,2.0,3.0,89,0.00,,,0.00,VWS V14.01,2013-04-07 08:14:00,
2013-04-07 03:15:00,36.5,33.6,29.82,NW,312,0.0,3.0,89,0.00,,,0.00,VWS V14.01,2013-04-07 08:15:00,
2013-04-07 03:19:00,36.5,33.6,29.82,NW,311,0.0,2.0,89,0.00,,,0.00,VWS V14.01,2013-04-07 08:19:00,
2013-04-07 03:25:00,36.5,33.6,29.82,NW,319,0.0,3.0,89,0.00,,,0.00,VWS V14.01,2013-04-07 08:25:00,
2013-04-07 03:30:00,36.5,33.6,29.82,NW,317,1.0,1.0,89,0.00,,,0.00,VWS V14.01,2013-04-07 08:30:00,
2013-04-07 03:36:00,36.4,33.5,29.82,NW,317,0.0,1.0,89,0.00,,,0.00,VWS V14.01,2013-04-07 08:36:00,
2013-04-07 03:41:00,36.3,33.4,29.82,NW,317,0.0,1.0,89,0.00,,,0.00,VWS V14.01,2013-04-07 08:41:00,
2013-04-07 03:45:00,36.3,33.4,29.82,NW,317,0.0,1.0,89,0.00,,,0.00,VWS V14.01,2013-04-07 08:45:00,
2013-04-07 03:47:00,36.2,33.0,29.82,NW,317,0.0,1.0,88,0.00,,,0.00,VWS V14.01,2013-04-07 08:47:00,
2013-04-07 03:52:00,36.1,33.2,29.82,NW,317,0.0,2.0,89,0.00,,,0.00,VWS V14.01,2013-04-07 08:52:00,
2013-04-07 03:57:00,36.0,33.1,29.83,NW,317,0.0,2.0,89,0.00,,,0.00,VWS V14.01,2013-04-07 08:57:00,
2013-04-07 04:00:00,36.0,33.1,29.83,NW,317,1.0,2.0,89,0.00,,,0.00,VWS V14.01,2013-04-07 09:00:00,
2013-04-07 04:02:00,36.0,33.1,29.83,NW,308,0.0,5.0,89,0.00,,,0.00,VWS V14.01,2013-04-07 09:02:00,
2013-04-07 04:07:00,35.9,33.0,29.83,WNW,299,2.0,5.0,89,0.00,,,0.00,VWS V14.01,2013-04-07 09:07:00,
2013-04-07 04:12:00,35.9,33.0,29.84,WSW,258,5.0,5.0,89,0.00,,,0.00,VWS V14.01,2013-04-07 09:12:00,
2013-04-07 04:15:00,35.8,32.9,29.84,NNW,329,1.0,5.0,89,0.00,,,0.00,VWS V14.01,2013-04-07 09:15:00,
2013-04-07 04:17:00,35.8,32.9,29.84,West,279,2.0,6.0,89,0.00,,,0.00,VWS V14.01,2013-04-07 09:17:00,
2013-04-07 04:23:00,35.7,32.8,29.84,WSW,244,5.0,6.0,89,0.00,,,0.00,VWS V14.01,2013-04-07 09:23:00,
2013-04-07 04:28:00,35.5,32.9,29.85,NW,324,2.0,6.0,90,0.00,,,0.00,VWS V14.01,2013-04-07 09:28:00,
2013-04-07 04:30:00,35.5,32.9,29.85,NW,314,3.0,6.0,90,0.00,,,0.00,VWS V14.01,2013-04-07 09:30:00,
2013-04-07 04:33:00,35.4,32.8,29.85,WNW,298,0.0,5.0,90,0.00,,,0.00,VWS V14.01,2013-04-07 09:33:00,
2013-04-07 04:38:00,35.3,32.7,29.85,West,281,0.0,5.0,90,0.00,,,0.00,VWS V14.01,2013-04-07 09:38:00,
2013-04-07 04:43:00,35.3,32.7,29.85,West,281,0.0,5.0,90,0.00,,,0.00,VWS V14.01,2013-04-07 09:43:00,
2013-04-07 04:45:00,35.3,32.7,29.85,West,281,0.0,5.0,90,0.00,,,0.00,VWS V14.01,2013-04-07 09:45:00,
2013-04-07 04:48:00,35.3,32.7,29.85,NNW,346,0.0,4.0,90,0.00,,,0.00,VWS V14.01,2013-04-07 09:48:00,
2013-04-07 04:54:00,35.5,32.6,29.85,NNW,346,0.0,4.0,89,0.00,,,0.00,VWS V14.01,2013-04-07 09:54:00,
2013-04-07 04:59:00,35.6,32.4,29.85,NNW,346,0.0,0.0,88,0.00,,,0.00,VWS V14.01,2013-04-07 09:59:00,
2013-04-07 05:00:00,35.6,32.4,29.85,NNW,346,0.0,4.0,88,0.00,,,0.00,VWS V14.01,2013-04-07 10:00:00,
2013-04-07 05:04:00,35.7,32.5,29.86,NNW,346,0.0,0.0,88,0.00,,,0.00,VWS V14.01,2013-04-07 10:04:00,
2013-04-07 05:09:00,35.7,32.8,29.86,NNW,346,0.0,1.0,89,0.00,,,0.00,VWS V14.01,2013-04-07 10:09:00,
2013-04-07 05:14:00,35.9,33.0,29.86,NNW,342,2.0,2.0,89,0.00,,,0.00,VWS V14.01,2013-04-07 10:14:00,
2013-04-07 05:15:00,35.9,33.0,29.86,NNW,342,1.0,2.0,89,0.00,,,0.00,VWS V14.01,2013-04-07 10:15:00,
2013-04-07 05:19:00,35.8,32.9,29.86,NNW,342,0.0,3.0,89,0.00,,,0.00,VWS V14.01,2013-04-07 10:19:00,
2013-04-07 05:25:00,35.7,32.5,29.86,West,266,2.0,5.0,88,0.00,,,0.00,VWS V14.01,2013-04-07 10:25:00,
2013-04-07 05:30:00,35.5,32.6,29.86,West,268,0.0,2.0,89,0.00,,,0.00,VWS V14.01,2013-04-07 10:30:00,
2013-04-07 05:35:00,35.4,32.5,29.87,West,268,0.0,2.0,89,0.00,,,0.00,VWS V14.01,2013-04-07 10:35:00,
2013-04-07 05:40:00,35.4,32.5,29.87,West,268,1.0,2.0,89,0.00,,,0.00,VWS V14.01,2013-04-07 10:40:00,
2013-04-07 05:45:00,35.4,32.8,29.87,West,269,0.0,0.0,90,0.00,,,0.00,VWS V14.01,2013-04-07 10:45:00,
2013-04-07 05:50:00,35.3,32.7,29.88,West,269,2.0,2.0,90,0.00,,,0.00,VWS V14.01,2013-04-07 10:50:00,
2013-04-07 05:55:00,35.2,32.6,29.88,West,269,0.0,2.0,90,0.00,,,0.00,VWS V14.01,2013-04-07 10:55:00,
2013-04-07 06:00:00,35.2,32.6,29.88,West,269,0.0,2.0,90,0.00,,,0.00,VWS V14.01,2013-04-07 11:00:00,
2013-04-07 06:05:00,35.2,32.6,29.88,West,269,0.0,3.0,90,0.00,,,0.00,VWS V14.01,2013-04-07 11:05:00,
2013-04-07 06:10:00,35.2,32.6,29.89,NW,307,1.0,4.0,90,0.00,,,0.00,VWS V14.01,2013-04-07 11:10:00,
2013-04-07 06:15:00,35.2,32.6,29.89,WNW,298,0.0,3.0,90,0.00,,,0.00,VWS V14.01,2013-04-07 11:15:00,
2013-04-07 06:20:00,35.2,32.6,29.89,NNW,336,0.0,3.0,90,0.00,,,0.00,VWS V14.01,2013-04-07 11:20:00,
2013-04-07 06:25:00,35.2,32.6,29.89,NNW,329,0.0,3.0,90,0.00,,,0.00,VWS V14.01,2013-04-07 11:25:00,
2013-04-07 06:30:00,35.2,32.6,29.89,NNW,329,0.0,3.0,90,0.00,,,0.00,VWS V14.01,2013-04-07 11:30:00,
2013-04-07 06:31:00,35.2,32.6,29.89,WNW,290,0.0,3.0,90,0.00,,,0.00,VWS V14.01,2013-04-07 11:31:00,
2013-04-07 06:36:00,35.2,32.6,29.89,WNW,292,0.0,4.0,90,0.00,,,0.00,VWS V14.01,2013-04-07 11:36:00,
2013-04-07 06:41:00,35.2,32.6,29.89,WNW,292,0.0,4.0,90,0.00,,,0.00,VWS V14.01,2013-04-07 11:41:00,
2013-04-07 06:45:00,35.1,32.5,29.89,WNW,292,2.0,4.0,90,0.00,,,0.00,VWS V14.01,2013-04-07 11:45:00,
2013-04-07 06:47:00,35.1,32.5,29.89,WNW,292,0.0,2.0,90,0.00,,,0.00,VWS V14.01,2013-04-07 11:47:00,
2013-04-07 06:52:00,35.1,32.5,29.89,WNW,292,0.0,3.0,90,0.00,,,0.00,VWS V14.01,2013-04-07 11:52:00,
2013-04-07 06:58:00,35.1,32.5,29.89,WNW,292,0.0,3.0,90,0.00,,,0.00,VWS V14.01,2013-04-07 11:58:00,
2013-04-07 07:00:00,35.1,32.5,29.90,WNW,292,1.0,3.0,90,0.00,,,0.00,VWS V14.01,2013-04-07 12:00:00,
2013-04-07 07:03:00,35.1,32.5,29.90,WNW,290,0.0,2.0,90,0.00,,,0.00,VWS V14.01,2013-04-07 12:03:00,
2013-04-07 07:08:00,35.1,32.5,29.89,WNW,290,1.0,2.0,90,0.00,,,0.00,VWS V14.01,2013-04-07 12:08:00,
2013-04-07 07:13:00,35.2,32.6,29.89,WNW,290,0.0,2.0,90,0.00,,,0.00,VWS V14.01,2013-04-07 12:13:00,
2013-04-07 07:15:00,35.2,32.6,29.90,WNW,290,0.0,2.0,90,0.00,,,0.00,VWS V14.01,2013-04-07 12:15:00,
2013-04-07 07:18:00,35.3,32.7,29.90,WNW,290,0.0,2.0,90,0.00,,,0.00,VWS V14.01,2013-04-07 12:18:00,
2013-04-07 07:23:00,35.4,32.8,29.90,WNW,290,1.0,2.0,90,0.00,,,0.00,VWS V14.01,2013-04-07 12:23:00,
2013-04-07 07:28:00,35.4,32.8,29.90,WNW,290,2.0,2.0,90,0.00,,,0.00,VWS V14.01,2013-04-07 12:28:00,
2013-04-07 07:30:00,35.4,32.8,29.90,WNW,290,0.0,2.0,90,0.00,,,0.00,VWS V14.01,2013-04-07 12:30:00,
2013-04-07 07:33:00,35.5,32.9,29.90,WNW,290,0.0,2.0,90,0.00,,,0.00,VWS V14.01,2013-04-07 12:33:00,
2013-04-07 07:38:00,35.5,32.6,29.90,WNW,290,1.0,3.0,89,0.00,,,0.00,VWS V14.01,2013-04-07 12:38:00,
2013-04-07 07:43:00,35.5,32.6,29.91,WNW,290,0.0,4.0,89,0.00,,,0.00,VWS V14.01,2013-04-07 12:43:00,
2013-04-07 07:45:00,35.4,32.5,29.91,WNW,290,0.0,4.0,89,0.00,,,0.00,VWS V14.01,2013-04-07 12:45:00,
2013-04-07 07:49:00,35.5,32.6,29.91,WNW,290,0.0,2.0,89,0.00,,,0.00,VWS V14.01,2013-04-07 12:49:00,
2013-04-07 07:54:00,35.6,32.7,29.91,WNW,290,0.0,2.0,89,0.00,,,0.00,VWS V14.01,2013-04-07 12:54:00,
2013-04-07 08:00:00,35.7,32.8,29.91,WNW,290,0.0,0.0,89,0.00,,,0.00,VWS V14.01,2013-04-07 13:00:00,
2013-04-07 08:05:00,35.7,32.5,29.92,WNW,290,0.0,2.0,88,0.00,,,0.00,VWS V14.01,2013-04-07 13:05:00,
2013-04-07 08:10:00,35.8,32.6,29.92,WNW,290,0.0,2.0,88,0.00,,,0.00,VWS V14.01,2013-04-07 13:10:00,
2013-04-07 08:15:00,35.9,32.7,29.92,WNW,290,3.0,3.0,88,0.00,,,0.00,VWS V14.01,2013-04-07 13:15:00,
2013-04-07 08:20:00,35.9,32.4,29.92,WNW,290,1.0,3.0,87,0.00,,,0.00,VWS V14.01,2013-04-07 13:20:00,
2013-04-07 08:25:00,36.1,32.9,29.92,WNW,290,0.0,3.0,88,0.00,,,0.00,VWS V14.01,2013-04-07 13:25:00,
2013-04-07 08:30:00,36.1,32.6,29.93,WNW,290,0.0,1.0,87,0.00,,,0.00,VWS V14.01,2013-04-07 13:30:00,
2013-04-07 08:35:00,36.2,32.7,29.93,WNW,290,2.0,2.0,87,0.00,,,0.00,VWS V14.01,2013-04-07 13:35:00,
2013-04-07 08:40:00,36.3,32.5,29.93,WNW,285,0.0,3.0,86,0.00,,,0.00,VWS V14.01,2013-04-07 13:40:00,
2013-04-07 08:45:00,36.4,32.6,29.93,WNW,288,1.0,2.0,86,0.00,,,0.00,VWS V14.01,2013-04-07 13:45:00,
2013-04-07 08:50:00,36.4,32.6,29.93,WNW,288,0.0,2.0,86,0.00,,,0.00,VWS V14.01,2013-04-07 13:50:00,
2013-04-07 08:55:00,36.5,33.0,29.93,WNW,294,0.0,3.0,87,0.00,,,0.00,VWS V14.01,2013-04-07 13:55:00,
2013-04-07 09:00:00,36.6,33.1,29.93,WNW,294,0.0,1.0,87,0.00,,,0.00,VWS V14.01,2013-04-07 14:00:00,
2013-04-07 09:05:00,36.7,32.9,29.93,WNW,294,1.0,2.0,86,0.00,,,0.00,VWS V14.01,2013-04-07 14:05:00,
2013-04-07 09:11:00,36.9,33.1,29.93,WNW,284,2.0,4.0,86,0.00,,,0.00,VWS V14.01,2013-04-07 14:11:00,
2013-04-07 09:15:00,37.0,33.2,29.93,WNW,284,0.0,4.0,86,0.00,,,0.00,VWS V14.01,2013-04-07 14:15:00,
2013-04-07 09:17:00,37.0,33.2,29.93,West,260,0.0,3.0,86,0.00,,,0.00,VWS V14.01,2013-04-07 14:17:00,
2013-04-07 09:22:00,37.1,33.0,29.93,West,274,3.0,5.0,85,0.00,,,0.00,VWS V14.01,2013-04-07 14:22:00,
2013-04-07 09:27:00,37.1,32.7,29.93,West,277,0.0,5.0,84,0.00,,,0.00,VWS V14.01,2013-04-07 14:27:00,
2013-04-07 09:30:00,37.1,33.0,29.93,West,277,0.0,5.0,85,0.00,,,0.00,VWS V14.01,2013-04-07 14:30:00,
2013-04-07 09:32:00,37.3,33.2,29.93,West,277,0.0,2.0,85,0.00,,,0.00,VWS V14.01,2013-04-07 14:32:00,
2013-04-07 09:37:00,37.5,33.4,29.93,West,274,0.0,3.0,85,0.00,,,0.00,VWS V14.01,2013-04-07 14:37:00,
2013-04-07 09:42:00,37.7,33.3,29.93,West,276,1.0,3.0,84,0.00,,,0.00,VWS V14.01,2013-04-07 14:42:00,
2013-04-07 09:45:00,37.7,33.0,29.93,West,276,0.0,3.0,83,0.00,,,0.00,VWS V14.01,2013-04-07 14:45:00,
2013-04-07 09:47:00,37.8,33.1,29.93,West,275,0.0,2.0,83,0.00,,,0.00,VWS V14.01,2013-04-07 14:47:00,
2013-04-07 09:52:00,38.0,33.6,29.94,West,266,0.0,3.0,84,0.00,,,0.00,VWS V14.01,2013-04-07 14:52:00,
2013-04-07 09:57:00,38.2,33.5,29.94,West,266,0.0,3.0,83,0.00,,,0.00,VWS V14.01,2013-04-07 14:57:00,
2013-04-07 10:00:00,38.2,33.5,29.94,West,266,0.0,3.0,83,0.00,,,0.00,VWS V14.01,2013-04-07 15:00:00,
2013-04-07 10:02:00,38.4,33.7,29.94,SE,142,0.0,1.0,83,0.00,,,0.00,VWS V14.01,2013-04-07 15:02:00,
2013-04-07 10:08:00,38.7,33.7,29.95,SE,128,0.0,2.0,82,0.00,,,0.00,VWS V14.01,2013-04-07 15:08:00,
2013-04-07 10:13:00,38.8,34.1,29.95,NNW,343,0.0,2.0,83,0.00,,,0.00,VWS V14.01,2013-04-07 15:13:00,
2013-04-07 10:15:00,38.8,33.8,29.95,NNW,343,1.0,2.0,82,0.00,,,0.00,VWS V14.01,2013-04-07 15:15:00,
2013-04-07 10:18:00,38.8,33.5,29.95,NNW,343,0.0,2.0,81,0.00,,,0.00,VWS V14.01,2013-04-07 15:18:00,
2013-04-07 10:23:00,38.8,33.5,29.95,NNW,343,0.0,2.0,81,0.00,,,0.00,VWS V14.01,2013-04-07 15:23:00,
2013-04-07 10:28:00,38.8,32.9,29.95,WNW,286,1.0,3.0,79,0.00,,,0.00,VWS V14.01,2013-04-07 15:28:00,
2013-04-07 10:30:00,38.8,33.2,29.95,WNW,286,0.0,3.0,80,0.00,,,0.00,VWS V14.01,2013-04-07 15:30:00,
2013-04-07 10:33:00,38.9,33.6,29.95,WNW,286,0.0,0.0,81,0.00,,,0.00,VWS V14.01,2013-04-07 15:33:00,
2013-04-07 10:39:00,39.0,33.4,29.95,WNW,286,0.0,2.0,80,0.00,,,0.00,VWS V14.01,2013-04-07 15:39:00,
2013-04-07 10:44:00,39.1,33.8,29.95,WNW,286,0.0,0.0,81,0.00,,,0.00,VWS V14.01,2013-04-07 15:44:00,
2013-04-07 10:45:00,39.1,33.8,29.95,WNW,286,0.0,2.0,81,0.00,,,0.00,VWS V14.01,2013-04-07 15:45:00,
2013-04-07 10:49:00,39.2,33.6,29.95,WNW,300,2.0,3.0,80,0.00,,,0.00,VWS V14.01,2013-04-07 15:49:00,
2013-04-07 10:55:00,39.0,33.0,29.95,NW,321,0.0,3.0,79,0.00,,,0.00,VWS V14.01,2013-04-07 15:55:00,
2013-04-07 11:00:00,39.1,32.8,29.96,SSW,208,2.0,2.0,78,0.00,,,0.00,VWS V14.01,2013-04-07 16:00:00,
2013-04-07 11:05:00,39.2,33.6,29.96,WSW,244,0.0,3.0,80,0.00,,,0.00,VWS V14.01,2013-04-07 16:05:00,
2013-04-07 11:11:00,39.6,34.0,29.96,West,275,0.0,3.0,80,0.00,,,0.00,VWS V14.01,2013-04-07 16:11:00,
2013-04-07 11:15:00,39.7,33.7,29.97,West,276,0.0,3.0,79,0.00,,,0.00,VWS V14.01,2013-04-07 16:15:00,
2013-04-07 11:17:00,39.9,33.6,29.97,West,264,0.0,1.0,78,0.00,,,0.00,VWS V14.01,2013-04-07 16:17:00,
2013-04-07 11:22:00,40.0,34.0,29.97,West,264,0.0,1.0,79,0.00,,,0.00,VWS V14.01,2013-04-07 16:22:00,
2013-04-07 11:27:00,40.2,34.2,29.97,SW,223,1.0,2.0,79,0.00,,,0.00,VWS V14.01,2013-04-07 16:27:00,
2013-04-07 11:30:00,40.2,34.2,29.97,West,266,0.0,2.0,79,0.00,,,0.00,VWS V14.01,2013-04-07 16:30:00,
2013-04-07 11:32:00,40.4,34.1,29.97,West,266,0.0,2.0,78,0.00,,,0.00,VWS V14.01,2013-04-07 16:32:00,
2013-04-07 11:37:00,40.6,34.3,29.97,West,266,0.0,2.0,78,0.00,,,0.00,VWS V14.01,2013-04-07 16:37:00,
2013-04-07 11:42:00,40.7,33.7,29.97,West,266,1.0,4.0,76,0.00,,,0.00,VWS V14.01,2013-04-07 16:42:00,
2013-04-07 11:45:00,40.6,33.6,29.97,West,266,0.0,4.0,76,0.00,,,0.00,VWS V14.01,2013-04-07 16:45:00,
2013-04-07 11:47:00,40.6,34.3,29.97,SSW,207,0.0,1.0,78,0.00,,,0.00,VWS V14.01,2013-04-07 16:47:00,
2013-04-07 11:52:00,40.8,34.5,29.96,SSE,166,0.0,2.0,78,0.00,,,0.00,VWS V14.01,2013-04-07 16:52:00,
2013-04-07 11:57:00,41.1,34.5,29.96,South,174,0.0,2.0,77,0.00,,,0.00,VWS V14.01,2013-04-07 16:57:00,
2013-04-07 12:00:00,41.1,34.1,29.96,South,182,3.0,4.0,76,0.00,,,0.00,VWS V14.01,2013-04-07 17:00:00,
2013-04-07 12:02:00,41.0,33.7,29.96,South,180,2.0,4.0,75,0.00,,,0.00,VWS V14.01,2013-04-07 17:02:00,
2013-04-07 12:07:00,40.7,34.1,29.96,SE,140,5.0,6.0,77,0.00,,,0.00,VWS V14.01,2013-04-07 17:07:00,
2013-04-07 12:12:00,40.2,33.9,29.96,SSW,196,3.0,8.0,78,0.00,,,0.00,VWS V14.01,2013-04-07 17:12:00,
2013-04-07 12:15:00,40.2,33.6,29.96,South,182,3.0,8.0,77,0.00,,,0.00,VWS V14.01,2013-04-07 17:15:00,
2013-04-07 12:18:00,40.2,33.6,29.96,South,176,0.0,5.0,77,0.00,,,0.00,VWS V14.01,2013-04-07 17:18:00,
2013-04-07 12:23:00,40.2,33.9,29.96,SE,130,0.0,6.0,78,0.00,,,0.00,VWS V14.01,2013-04-07 17:23:00,
2013-04-07 12:28:00,40.4,34.1,29.96,SSE,153,0.0,6.0,78,0.00,,,0.00,VWS V14.01,2013-04-07 17:28:00,
2013-04-07 12:30:00,40.5,34.2,29.96,SSE,153,1.0,6.0,78,0.00,,,0.00,VWS V14.01,2013-04-07 17:30:00,
2013-04-07 12:33:00,40.8,34.5,29.95,SSE,154,0.0,4.0,78,0.00,,,0.00,VWS V14.01,2013-04-07 17:33:00,
2013-04-07 12:38:00,41.5,35.2,29.95,East,79,3.0,4.0,78,0.00,,,0.00,VWS V14.01,2013-04-07 17:38:00,
2013-04-07 12:43:00,41.0,33.7,29.95,SE,142,2.0,7.0,75,0.00,,,0.00,VWS V14.01,2013-04-07 17:43:00,
2013-04-07 12:45:00,41.0,33.7,29.95,SE,141,0.0,7.0,75,0.00,,,0.00,VWS V14.01,2013-04-07 17:45:00,
2013-04-07 12:48:00,40.8,34.2,29.96,SSW,212,0.0,5.0,77,0.00,,,0.00,VWS V14.01,2013-04-07 17:48:00,
2013-04-07 12:53:00,41.4,35.1,29.96,SSE,168,1.0,5.0,78,0.00,,,0.00,VWS V14.01,2013-04-07 17:53:00,
2013-04-07 12:58:00,41.4,34.4,29.95,ESE,123,4.0,6.0,76,0.00,,,0.00,VWS V14.01,2013-04-07 17:58:00,
2013-04-07 13:00:00,41.4,34.4,29.95,ESE,123,4.0,6.0,76,0.00,,,0.00,VWS V14.01,2013-04-07 18:00:00,
2013-04-07 13:04:00,41.4,34.7,29.94,South,174,6.0,6.0,77,0.00,,,0.00,VWS V14.01,2013-04-07 18:04:00,
2013-04-07 13:09:00,41.9,35.2,29.94,South,170,1.0,6.0,77,0.00,,,0.00,VWS V14.01,2013-04-07 18:09:00,
2013-04-07 13:15:00,42.2,34.9,29.94,SSW,211,3.0,5.0,75,0.00,,,0.00,VWS V14.01,2013-04-07 18:15:00,
2013-04-07 13:20:00,42.3,34.6,29.94,South,182,2.0,5.0,74,0.00,,,0.00,VWS V14.01,2013-04-07 18:20:00,
2013-04-07 13:25:00,42.1,34.8,29.94,SSE,167,5.0,5.0,75,0.00,,,0.00,VWS V14.01,2013-04-07 18:25:00,
2013-04-07 13:30:00,42.3,35.0,29.94,SE,128,1.0,6.0,75,0.00,,,0.00,VWS V14.01,2013-04-07 18:30:00,
2013-04-07 13:35:00,42.8,35.1,29.94,WSW,253,4.0,6.0,74,0.00,,,0.00,VWS V14.01,2013-04-07 18:35:00,
2013-04-07 13:40:00,43.1,35.0,29.93,South,186,8.0,8.0,73,0.00,,,0.00,VWS V14.01,2013-04-07 18:40:00,
2013-04-07 13:45:00,42.6,34.9,29.93,SE,137,2.0,9.0,74,0.00,,,0.00,VWS V14.01,2013-04-07 18:45:00,
2013-04-07 13:50:00,42.5,35.2,29.94,SSE,161,4.0,9.0,75,0.00,,,0.00,VWS V14.01,2013-04-07 18:50:00,
2013-04-07 13:55:00,42.4,34.7,29.94,South,190,1.0,9.0,74,0.00,,,0.00,VWS V14.01,2013-04-07 18:55:00,
2013-04-07 14:00:00,42.7,35.3,29.94,South,170,4.0,5.0,75,0.00,,,0.00,VWS V14.01,2013-04-07 19:00:00,
2013-04-07 14:05:00,42.3,34.6,29.93,SE,132,6.0,7.0,74,0.00,,,0.00,VWS V14.01,2013-04-07 19:05:00,
2013-04-07 14:10:00,42.1,35.1,29.93,South,190,3.0,7.0,76,0.00,,,0.00,VWS V14.01,2013-04-07 19:10:00,
2013-04-07 14:15:00,42.4,35.4,29.93,SE,142,4.0,7.0,76,0.00,,,0.00,VWS V14.01,2013-04-07 19:15:00,
2013-04-07 14:16:00,42.4,35.0,29.93,SE,143,4.0,6.0,75,0.00,,,0.00,VWS V14.01,2013-04-07 19:16:00,
2013-04-07 14:21:00,42.0,35.0,29.93,SE,128,2.0,11.0,76,0.00,,,0.00,VWS V14.01,2013-04-07 19:21:00,
2013-04-07 14:26:00,42.9,35.9,29.92,South,182,3.0,11.0,76,0.00,,,0.00,VWS V14.01,2013-04-07 19:26:00,
2013-04-07 14:30:00,43.1,36.1,29.92,SE,127,7.0,11.0,76,0.00,,,0.00,VWS V14.01,2013-04-07 19:30:00,
2013-04-07 14:31:00,42.9,35.5,29.91,East,99,2.0,7.0,75,0.00,,,0.00,VWS V14.01,2013-04-07 19:31:00,
2013-04-07 14:37:00,42.5,35.2,29.91,ESE,110,5.0,12.0,75,0.00,,,0.00,VWS V14.01,2013-04-07 19:37:00,
2013-04-07 14:42:00,42.8,35.4,29.91,SE,134,7.0,12.0,75,0.00,,,0.00,VWS V14.01,2013-04-07 19:42:00,
2013-04-07 14:45:00,43.1,36.4,29.91,SSE,162,0.0,12.0,77,0.00,,,0.00,VWS V14.01,2013-04-07 19:45:00,
2013-04-07 14:47:00,43.8,36.4,29.90,South,175,2.0,6.0,75,0.00,,,0.00,VWS V14.01,2013-04-07 19:47:00,
2013-04-07 14:52:00,44.0,36.3,29.90,ESE,107,0.0,7.0,74,0.00,,,0.00,VWS V14.01,2013-04-07 19:52:00,
2013-04-07 14:57:00,44.4,36.7,29.90,ESE,119,5.0,11.0,74,0.00,,,0.00,VWS V14.01,2013-04-07 19:57:00,
2013-04-07 15:00:00,44.4,36.3,29.90,SE,144,4.0,11.0,73,0.00,,,0.00,VWS V14.01,2013-04-07 20:00:00,
2013-04-07 15:02:00,44.4,36.3,29.90,SE,142,4.0,11.0,73,0.00,,,0.00,VWS V14.01,2013-04-07 20:02:00,
2013-04-07 15:07:00,44.3,36.2,29.90,SE,136,7.0,11.0,73,0.00,,,0.00,VWS V14.01,2013-04-07 20:07:00,
2013-04-07 15:13:00,44.5,36.4,29.90,SE,140,7.0,11.0,73,0.00,,,0.00,VWS V14.01,2013-04-07 20:13:00,
2013-04-07 15:15:00,44.5,36.7,29.90,SE,125,6.0,11.0,74,0.00,,,0.00,VWS V14.01,2013-04-07 20:15:00,
2013-04-07 15:18:00,44.5,36.0,29.90,SE,140,7.0,12.0,72,0.00,,,0.00,VWS V14.01,2013-04-07 20:18:00,
2013-04-07 15:23:00,44.1,36.0,29.89,ESE,119,5.0,14.0,73,0.00,,,0.00,VWS V14.01,2013-04-07 20:23:00,
2013-04-07 15:28:00,44.8,37.0,29.89,South,180,3.0,14.0,74,0.00,,,0.00,VWS V14.01,2013-04-07 20:28:00,
2013-04-07 15:30:00,44.9,36.8,29.89,SSW,205,5.0,14.0,73,0.00,,,0.00,VWS V14.01,2013-04-07 20:30:00,
2013-04-07 15:33:00,45.4,36.9,29.89,SSE,165,5.0,7.0,72,0.00,,,0.00,VWS V14.01,2013-04-07 20:33:00,
2013-04-07 15:39:00,45.7,37.2,29.89,SW,236,3.0,9.0,72,0.00,,,0.00,VWS V14.01,2013-04-07 20:39:00,
2013-04-07 15:44:00,45.5,37.0,29.88,SE,129,13.0,13.0,72,0.00,,,0.00,VWS V14.01,2013-04-07 20:44:00,
2013-04-07 15:45:00,45.6,37.1,29.88,SE,138,9.0,14.0,72,0.00,,,0.00,VWS V14.01,2013-04-07 20:45:00,
2013-04-07 15:50:00,45.2,36.7,29.88,SE,136,6.0,14.0,72,0.00,,,0.00,VWS V14.01,2013-04-07 20:50:00,
2013-04-07 15:55:00,45.4,36.9,29.88,South,173,6.0,14.0,72,0.00,,,0.00,VWS V14.01,2013-04-07 20:55:00,
2013-04-07 16:00:00,45.9,37.8,29.88,SSE,159,6.0,6.0,73,0.00,,,0.00,VWS V14.01,2013-04-07 21:00:00,
2013-04-07 16:05:00,45.6,37.1,29.88,ESE,120,8.0,15.0,72,0.00,,,0.00,VWS V14.01,2013-04-07 21:05:00,
2013-04-07 16:10:00,45.5,37.4,29.87,SE,142,6.0,15.0,73,0.00,,,0.00,VWS V14.01,2013-04-07 21:10:00,
2013-04-07 16:15:00,45.8,37.7,29.87,SSE,158,6.0,15.0,73,0.00,,,0.00,VWS V14.01,2013-04-07 21:15:00,
2013-04-07 16:16:00,45.9,37.8,29.87,SE,138,4.0,6.0,73,0.00,,,0.00,VWS V14.01,2013-04-07 21:16:00,
2013-04-07 16:21:00,45.9,37.8,29.87,ESE,121,9.0,13.0,73,0.00,,,0.00,VWS V14.01,2013-04-07 21:21:00,
2013-04-07 16:26:00,46.1,37.9,29.87,SSE,150,6.0,13.0,73,0.00,,,0.00,VWS V14.01,2013-04-07 21:26:00,
2013-04-07 16:30:00,46.2,37.7,29.87,South,173,2.0,13.0,72,0.00,,,0.00,VWS V14.01,2013-04-07 21:30:00,
2013-04-07 16:31:00,46.2,38.0,29.87,SE,140,10.0,12.0,73,0.00,,,0.00,VWS V14.01,2013-04-07 21:31:00,
2013-04-07 16:36:00,46.2,37.7,29.87,SSE,161,5.0,12.0,72,0.00,,,0.00,VWS V14.01,2013-04-07 21:36:00,
2013-04-07 16:41:00,46.3,38.1,29.87,South,169,6.0,12.0,73,0.00,,,0.00,VWS V14.01,2013-04-07 21:41:00,
2013-04-07 16:45:00,46.4,38.2,29.87,SE,128,9.0,12.0,73,0.00,,,0.00,VWS V14.01,2013-04-07 21:45:00,
2013-04-07 16:46:00,46.6,38.1,29.86,SSE,155,5.0,9.0,72,0.00,,,0.00,VWS V14.01,2013-04-07 21:46:00,
2013-04-07 16:52:00,47.0,38.5,29.87,SE,145,5.0,10.0,72,0.00,,,0.00,VWS V14.01,2013-04-07 21:52:00,
2013-04-07 16:57:00,46.9,38.4,29.87,SE,145,9.0,15.0,72,0.00,,,0.00,VWS V14.01,2013-04-07 21:57:00,
2013-04-07 17:00:00,46.7,38.2,29.87,SE,128,7.0,15.0,72,0.00,,,0.00,VWS V14.01,2013-04-07 22:00:00,
2013-04-07 17:02:00,46.4,38.2,29.87,SE,143,7.0,13.0,73,0.00,,,0.00,VWS V14.01,2013-04-07 22:02:00,
2013-04-07 17:07:00,46.3,38.8,29.86,SSE,147,6.0,20.0,75,0.00,,,0.00,VWS V14.01,2013-04-07 22:07:00,
2013-04-07 17:12:00,46.5,38.7,29.86,SE,134,8.0,20.0,74,0.00,,,0.00,VWS V14.01,2013-04-07 22:12:00,
2013-04-07 17:15:00,46.7,38.9,29.86,SE,131,8.0,20.0,74,0.00,,,0.00,VWS V14.01,2013-04-07 22:15:00,
2013-04-07 17:17:00,46.8,39.0,29.86,South,178,1.0,11.0,74,0.00,,,0.00,VWS V14.01,2013-04-07 22:17:00,
2013-04-07 17:22:00,47.2,39.3,29.86,SE,132,8.0,17.0,74,0.00,,,0.00,VWS V14.01,2013-04-07 22:22:00,
2013-04-07 17:27:00,47.3,39.1,29.86,SSE,150,4.0,17.0,73,0.00,,,0.00,VWS V14.01,2013-04-07 22:27:00,
2013-04-07 17:30:00,47.3,39.1,29.86,South,188,2.0,17.0,73,0.00,,,0.00,VWS V14.01,2013-04-07 22:30:00,
2013-04-07 17:33:00,47.3,39.1,29.86,SE,144,5.0,9.0,73,0.00,,,0.00,VWS V14.01,2013-04-07 22:33:00,
2013-04-07 17:38:00,47.5,39.3,29.86,SSE,157,4.0,9.0,73,0.00,,,0.00,VWS V14.01,2013-04-07 22:38:00,
2013-04-07 17:43:00,47.3,39.1,29.86,SE,134,11.0,11.0,73,0.00,,,0.00,VWS V14.01,2013-04-07 22:43:00,
2013-04-07 17:45:00,47.3,39.1,29.86,SE,141,8.0,13.0,73,0.00,,,0.00,VWS V14.01,2013-04-07 22:45:00,
2013-04-07 17:48:00,47.4,39.2,29.86,South,175,5.0,9.0,73,0.00,,,0.00,VWS V14.01,2013-04-07 22:48:00,
2013-04-07 17:53:00,47.4,39.5,29.86,South,182,5.0,11.0,74,0.00,,,0.00,VWS V14.01,2013-04-07 22:53:00,
2013-04-07 17:58:00,47.4,39.5,29.86,SE,138,7.0,11.0,74,0.00,,,0.00,VWS V14.01,2013-04-07 22:58:00,
2013-04-07 18:00:00,47.4,39.5,29.86,South,182,6.0,11.0,74,0.00,,,0.00,VWS V14.01,2013-04-07 23:00:00,
2013-04-07 18:04:00,47.4,39.9,29.86,SSE,162,1.0,7.0,75,0.00,,,0.00,VWS V14.01,2013-04-07 23:04:00,
2013-04-07 18:09:00,47.4,39.9,29.86,SE,127,6.0,8.0,75,0.00,,,0.00,VWS V14.01,2013-04-07 23:09:00,
2013-04-07 18:14:00,47.3,39.8,29.86,SE,138,6.0,9.0,75,0.00,,,0.00,VWS V14.01,2013-04-07 23:14:00,
2013-04-07 18:15:00,47.3,39.8,29.86,SE,126,7.0,8.0,75,0.00,,,0.00,VWS V14.01,2013-04-07 23:15:00,
2013-04-07 18:19:00,47.2,39.7,29.85,SSE,155,4.0,9.0,75,0.00,,,0.00,VWS V14.01,2013-04-07 23:19:00,
2013-04-07 18:24:00,47.3,40.1,29.85,SE,138,4.0,9.0,76,0.00,,,0.00,VWS V14.01,2013-04-07 23:24:00,
2013-04-07 18:30:00,47.3,40.1,29.85,SE,134,5.0,5.0,76,0.00,,,0.00,VWS V14.01,2013-04-07 23:30:00,
2013-04-07 18:35:00,47.2,40.0,29.85,SE,142,6.0,9.0,76,0.00,,,0.00,VWS V14.01,2013-04-07 23:35:00,
2013-04-07 18:40:00,47.3,40.5,29.85,SE,130,7.0,9.0,77,0.00,,,0.00,VWS V14.01,2013-04-07 23:40:00,
2013-04-07 18:45:00,47.4,40.6,29.85,SE,131,5.0,7.0,77,0.00,,,0.00,VWS V14.01,2013-04-07 23:45:00,
2013-04-07 18:50:00,47.4,40.6,29.85,ESE,123,5.0,7.0,77,0.00,,,0.00,VWS V14.01,2013-04-07 23:50:00,
2013-04-07 18:55:00,47.3,40.5,29.84,SE,126,6.0,8.0,77,0.00,,,0.00,VWS V14.01,2013-04-07 23:55:00,
2013-04-07 19:00:00,47.3,40.5,29.84,SE,125,5.0,6.0,77,0.00,,,0.00,VWS V14.01,2013-04-08 00:00:00,
2013-04-07 19:05:00,47.2,40.4,29.85,SE,140,0.0,6.0,77,0.00,,,0.00,VWS V14.01,2013-04-08 00:05:00,
2013-04-07 19:10:00,47.2,40.4,29.85,SE,140,0.0,6.0,77,0.00,,,0.00,VWS V14.01,2013-04-08 00:10:00,
2013-04-07 19:15:00,47.0,40.2,29.84,SE,140,1.0,4.0,77,0.00,,,0.00,VWS V14.01,2013-04-08 00:15:00,
2013-04-07 19:21:00,47.0,40.5,29.85,East,82,1.0,5.0,78,0.00,,,0.00,VWS V14.01,2013-04-08 00:21:00,
2013-04-07 19:27:00,47.0,40.5,29.84,East,82,1.0,5.0,78,0.00,,,0.00,VWS V14.01,2013-04-08 00:27:00,
2013-04-07 19:30:00,46.9,40.4,29.84,East,82,2.0,5.0,78,0.00,,,0.00,VWS V14.01,2013-04-08 00:30:00,
2013-04-07 19:32:00,46.9,40.7,29.84,East,82,2.0,3.0,79,0.00,,,0.00,VWS V14.01,2013-04-08 00:32:00,
2013-04-07 19:37:00,46.8,40.6,29.84,East,82,2.0,3.0,79,0.00,,,0.00,VWS V14.01,2013-04-08 00:37:00,
2013-04-07 19:42:00,46.6,40.8,29.84,East,83,2.0,3.0,80,0.00,,,0.00,VWS V14.01,2013-04-08 00:42:00,
2013-04-07 19:45:00,46.6,40.8,29.83,East,83,2.0,3.0,80,0.00,,,0.00,VWS V14.01,2013-04-08 00:45:00,
2013-04-07 19:47:00,46.5,40.7,29.84,East,85,1.0,3.0,80,0.00,,,0.00,VWS V14.01,2013-04-08 00:47:00,
2013-04-07 19:53:00,46.4,40.6,29.84,East,89,1.0,4.0,80,0.00,,,0.00,VWS V14.01,2013-04-08 00:53:00,
2013-04-07 19:58:00,46.3,40.8,29.84,East,81,0.0,7.0,81,0.00,,,0.00,VWS V14.01,2013-04-08 00:58:00,
2013-04-07 20:00:00,46.4,40.9,29.84,East,81,2.0,7.0,81,0.00,,,0.00,VWS V14.01,2013-04-08 01:00:00,
2013-04-07 20:03:00,46.4,40.6,29.84,ESE,112,5.0,7.0,80,0.00,,,0.00,VWS V14.01,2013-04-08 01:03:00,
2013-04-07 20:09:00,46.4,40.6,29.84,SE,129,6.0,7.0,80,0.00,,,0.00,VWS V14.01,2013-04-08 01:09:00,
2013-04-07 20:14:00,46.4,40.6,29.85,SE,132,4.0,7.0,80,0.00,,,0.00,VWS V14.01,2013-04-08 01:14:00,
2013-04-07 20:15:00,46.4,40.6,29.85,SE,132,4.0,7.0,80,0.00,,,0.00,VWS V14.01,2013-04-08 01:15:00,
2013-04-07 20:19:00,46.4,40.6,29.85,East,98,2.0,5.0,80,0.00,,,0.00,VWS V14.01,2013-04-08 01:19:00,
2013-04-07 20:24:00,46.3,40.5,29.84,ESE,103,5.0,5.0,80,0.00,,,0.00,VWS V14.01,2013-04-08 01:24:00,
2013-04-07 20:29:00,46.2,40.4,29.84,ESE,108,4.0,5.0,80,0.00,,,0.00,VWS V14.01,2013-04-08 01:29:00,
2013-04-07 20:30:00,46.2,40.4,29.84,ESE,107,5.0,6.0,80,0.00,,,0.00,VWS V14.01,2013-04-08 01:30:00,
2013-04-07 20:34:00,45.9,40.4,29.84,ESE,104,4.0,6.0,81,0.00,,,0.00,VWS V14.01,2013-04-08 01:34:00,
2013-04-07 20:39:00,45.6,40.1,29.84,ESE,120,5.0,7.0,81,0.00,,,0.00,VWS V14.01,2013-04-08 01:39:00,
2013-04-07 20:44:00,45.4,40.2,29.83,SE,133,8.0,8.0,82,0.00,,,0.00,VWS V14.01,2013-04-08 01:44:00,
2013-04-07 20:45:00,45.5,40.3,29.84,ENE,78,5.0,8.0,82,0.00,,,0.00,VWS V14.01,2013-04-08 01:45:00,
2013-04-07 20:49:00,45.3,40.1,29.83,ESE,117,5.0,8.0,82,0.00,,,0.00,VWS V14.01,2013-04-08 01:49:00,
2013-04-07 20:54:00,45.1,40.2,29.83,ESE,116,6.0,9.0,83,0.00,,,0.00,VWS V14.01,2013-04-08 01:54:00,
2013-04-07 21:00:00,45.0,40.2,29.83,ESE,105,8.0,9.0,83,0.00,,,0.00,VWS V14.01,2013-04-08 02:00:00,
2013-04-07 21:05:00,44.8,40.3,29.82,SE,124,11.0,15.0,84,0.00,,,0.00,VWS V14.01,2013-04-08 02:05:00,
2013-04-07 21:10:00,44.5,40.3,29.83,SE,137,6.0,15.0,85,0.00,,,0.00,VWS V14.01,2013-04-08 02:10:00,
2013-04-07 21:15:00,44.3,40.4,29.83,SSE,147,7.0,8.0,86,0.00,,,0.00,VWS V14.01,2013-04-08 02:15:00,
2013-04-07 21:20:00,44.2,40.3,29.83,SE,127,8.0,11.0,86,0.00,,,0.00,VWS V14.01,2013-04-08 02:20:00,
2013-04-07 21:25:00,44.2,40.6,29.83,SE,137,9.0,11.0,87,0.01,,,0.01,VWS V14.01,2013-04-08 02:25:00,
2013-04-07 21:30:00,44.1,40.5,29.83,SE,132,9.0,12.0,87,0.01,,,0.01,VWS V14.01,2013-04-08 02:30:00,
2013-04-07 21:35:00,44.0,40.4,29.83,SE,130,12.0,14.0,87,0.01,,,0.01,VWS V14.01,2013-04-08 02:35:00,
2013-04-07 21:40:00,43.8,40.2,29.83,SE,134,11.0,14.0,87,0.01,,,0.01,VWS V14.01,2013-04-08 02:40:00,
2013-04-07 21:45:00,43.8,40.2,29.83,SE,129,12.0,12.0,87,0.01,,,0.01,VWS V14.01,2013-04-08 02:45:00,
2013-04-07 21:50:00,43.6,40.3,29.83,SE,134,14.0,14.0,88,0.01,,,0.01,VWS V14.01,2013-04-08 02:50:00,
2013-04-07 21:56:00,43.4,40.1,29.83,ESE,123,7.0,14.0,88,0.01,,,0.01,VWS V14.01,2013-04-08 02:56:00,
2013-04-07 22:00:00,43.4,40.4,29.83,SE,139,6.0,14.0,89,0.01,,,0.01,VWS V14.01,2013-04-08 03:00:00,
2013-04-07 22:01:00,43.3,40.3,29.84,SSE,152,5.0,7.0,89,0.01,,,0.01,VWS V14.01,2013-04-08 03:01:00,
2013-04-07 22:07:00,43.3,40.3,29.84,SE,144,5.0,7.0,89,0.02,,,0.02,VWS V14.01,2013-04-08 03:07:00,
2013-04-07 22:12:00,43.2,40.5,29.84,SE,138,6.0,10.0,90,0.02,,,0.02,VWS V14.01,2013-04-08 03:12:00,
2013-04-07 22:15:00,43.1,40.4,29.83,SE,132,7.0,10.0,90,0.02,,,0.02,VWS V14.01,2013-04-08 03:15:00,
2013-04-07 22:17:00,43.0,40.3,29.83,SE,130,7.0,7.0,90,0.02,,,0.02,VWS V14.01,2013-04-08 03:17:00,
2013-04-07 22:23:00,42.9,40.5,29.82,SE,131,9.0,12.0,91,0.02,,,0.02,VWS V14.01,2013-04-08 03:23:00,
2013-04-07 22:28:00,42.9,40.2,29.82,SE,131,12.0,12.0,90,0.03,,,0.03,VWS V14.01,2013-04-08 03:28:00,
2013-04-07 22:30:00,42.9,40.2,29.82,SE,136,10.0,14.0,90,0.03,,,0.03,VWS V14.01,2013-04-08 03:30:00,
2013-04-07 22:33:00,42.9,40.5,29.82,SE,126,8.0,13.0,91,0.02,,,0.03,VWS V14.01,2013-04-08 03:33:00,
2013-04-07 22:39:00,42.8,40.4,29.81,SSE,151,8.0,13.0,91,0.03,,,0.04,VWS V14.01,2013-04-08 03:39:00,
2013-04-07 22:44:00,42.8,40.4,29.80,SE,126,8.0,8.0,91,0.03,,,0.04,VWS V14.01,2013-04-08 03:44:00,
2013-04-07 22:45:00,42.8,40.4,29.81,SE,129,7.0,13.0,91,0.03,,,0.04,VWS V14.01,2013-04-08 03:45:00,
2013-04-07 22:49:00,42.8,40.4,29.80,SE,134,12.0,15.0,91,0.03,,,0.04,VWS V14.01,2013-04-08 03:49:00,
2013-04-07 22:55:00,42.8,40.4,29.79,ESE,107,8.0,15.0,91,0.04,,,0.05,VWS V14.01,2013-04-08 03:55:00,
2013-04-07 23:00:00,42.7,40.5,29.79,SE,124,8.0,13.0,92,0.04,,,0.05,VWS V14.01,2013-04-08 04:00:00,
2013-04-07 23:01:00,42.6,40.4,29.79,ESE,115,8.0,15.0,92,0.05,,,0.06,VWS V14.01,2013-04-08 04:01:00,
2013-04-07 23:02:00,42.6,40.4,29.79,SE,128,12.0,15.0,92,0.05,,,0.06,VWS V14.01,2013-04-08 04:02:00,
2013-04-07 23:07:00,42.5,40.3,29.78,SE,126,11.0,16.0,92,0.05,,,0.06,VWS V14.01,2013-04-08 04:07:00,
2013-04-07 23:12:00,42.3,40.2,29.78,SE,134,6.0,16.0,92,0.05,,,0.06,VWS V14.01,2013-04-08 04:12:00,
2013-04-07 23:15:00,42.3,40.2,29.78,SE,130,12.0,16.0,92,0.05,,,0.06,VWS V14.01,2013-04-08 04:15:00,
2013-04-07 23:17:00,42.3,40.2,29.78,SE,129,5.0,12.0,92,0.04,,,0.06,VWS V14.01,2013-04-08 04:17:00,
2013-04-07 23:22:00,42.3,40.4,29.78,SE,124,11.0,12.0,93,0.05,,,0.07,VWS V14.01,2013-04-08 04:22:00,
2013-04-07 23:27:00,42.4,40.5,29.78,SE,128,8.0,12.0,93,0.05,,,0.07,VWS V14.01,2013-04-08 04:27:00,
2013-04-07 23:30:00,42.4,40.5,29.78,SE,126,9.0,12.0,93,0.05,,,0.07,VWS V14.01,2013-04-08 04:30:00,
2013-04-07 23:32:00,42.4,40.5,29.78,SE,131,12.0,13.0,93,0.05,,,0.08,VWS V14.01,2013-04-08 04:32:00,
2013-04-07 23:37:00,42.4,40.5,29.78,SE,129,9.0,13.0,93,0.05,,,0.08,VWS V14.01,2013-04-08 04:37:00,
2013-04-07 23:43:00,42.5,40.6,29.78,SE,139,9.0,13.0,93,0.05,,,0.08,VWS V14.01,2013-04-08 04:43:00,
2013-04-07 23:45:00,42.5,40.6,29.78,SE,130,14.0,14.0,93,0.05,,,0.08,VWS V14.01,2013-04-08 04:45:00,
2013-04-07 23:48:00,42.5,40.6,29.77,SE,134,11.0,14.0,93,0.04,,,0.08,VWS V14.01,2013-04-08 04:48:00,
2013-04-07 23:53:00,42.5,40.6,29.77,SE,139,11.0,14.0,93,0.05,,,0.09,VWS V14.01,2013-04-08 04:53:00,
2013-04-07 23:58:00,42.5,40.6,29.78,SE,136,7.0,14.0,93,0.06,,,0.10,VWS V14.01,2013-04-08 04:58:00,